Location: Brunembert
(50.7122°N, 1.8935°E)
Time: 03:43:06
(UTC+00:00)

IRIDIUM 114 - Pass Details

Date: 22 April 2021
Orbit: 776 x 779 km, 86.4° (Epoch: 06 May)

Event Time Altitude Azimuth Distance (km) Brightness Sun altitude
Rises 20:13:26 0° 180° (S) 3,249 7.2 -11.1°
Reaches altitude 10° 20:15:46 10° 180° (S) 2,325 6.5 -11.4°
Maximum altitude 20:20:59 85° 92° (E) 788 4.3 -12.1°
Drops below altitude 10° 20:26:14 10° 5° (N) 2,341 7.3 -12.7°
Sets 20:28:35 0° 5° (N) 3,273 8.1 -13.0°
